Погода в Верховье

Россия / Калужская область     54°58′13″N   36°29′45″E
темп.,
°C
ветер,
м/с
пор.,
м/с
влажн.,
%
обл.,
%
осадки,
мм/ч
давл.,
гПа
погр.,
м
28 января, чт
чт2800:00−5ю1294100 0.0 100921
03:00−5в1194100 0.0 100721
06:00−3всв2596100 0.2 1006208
09:00−2всв3797100 2.6 1005330
12:00−1всв3598100 2.0 1004240
15:00+1в24100100 3.3 1002104
18:00+1юв3999100 0.5 1002355
21:00+1юв41198100 1.2 1000409
29 января, пт
пт2900:000юв4997100 0.1 999371
03:00+1юв41099100 0.4 997445
06:00+2ююв51299100 0.3 996547
09:000ююв51197100 0.5 995896
12:00−2ююв6119180 0.2 994990
15:00−1ююв6119190 0.8 9921058
18:00−2ююз51288100 0.6 992820
21:00−4ююз5986100 0.6 993776
30 января, сб
сб3000:00−5ююв3796100 0.4 993325
03:00−7ююз379695 0.4 994170
06:00−8ююз399641 0.0 994253
09:00−8ююз4119361 0.1 994461
12:00−5юз6119198 0.1 996692
15:00−5юз5108899 0.3 996642
18:00−6ююз4109098 0.1 997734
21:00−5ю399499 0.1 997524
31 января, вс
вс3100:00−5юв2597100 0.4 995254
03:00−4в2597100 1.4 993208
06:00−5всв2298100 0.2 99086
09:00−4св2397100 0.9 988100
12:00−3с4797100 3.0 987292
15:00−4сз61294100 5.9 989637
18:00−6з61388100 0.2 995615
21:00−7зюз5139198 0.3 1000533
1 февраля, пн
пн100:00−7зюз51292100 0.1 1003636
03:00−8юз41193100 0.1 1006413
06:00−10юз399596 0.0 1007217
09:00−10ююз369696 0.1 1009192
12:00−7ю2693100 0.0 1008279
15:00−5юв3592100 0.1 1006439
18:00−6всв2596100 1.5 1003228
21:00−6ссв3596100 3.1 1001236